• en France
  • Liste des pays
  • À 7 jours
  • Température de l'eau
  • Carte satellitaire
  • Carte météo
  • Widgets météo
  • user-avatar
    Se connecter

    Météo par heure à Armavir

    Ce jour, 25 Septembre, Lundi

    Heure Température Précipitation Vent Pression Humidité
    00:00 +20°C° 0,1 mm 2 m/s 690 mmHg 67%
    01:00 +19°C° 0,1 mm 2 m/s 690 mmHg 69%
    02:00 +19°C° 0,1 mm 2 m/s 689 mmHg 71%
    03:00 +19°C° 0 mm 2 m/s 689 mmHg 70%
    04:00 +18°C° 0,2 mm 2 m/s 689 mmHg 72%
    05:00 +19°C° 0,2 mm 1 m/s 689 mmHg 74%
    06:00 +19°C° 0,2 mm 1 m/s 689 mmHg 76%
    07:00 +21°C° 0,2 mm 1 m/s 690 mmHg 66%
    08:00 +23°C° 0,2 mm 1 m/s 690 mmHg 56%
    09:00 +25°C° 0 mm 1 m/s 690 mmHg 45%
    10:00 +26°C° 0,2 mm 1 m/s 690 mmHg 40%
    11:00 +27°C° 0,2 mm 1 m/s 690 mmHg 36%
    12:00 +28°C° 0,2 mm 1 m/s 690 mmHg 31%
    13:00 +29°C° 0,3 mm 1 m/s 690 mmHg 30%
    14:00 +29°C° 0,3 mm 1 m/s 690 mmHg 28%
    15:00 +29°C° 0,3 mm 1 m/s 689 mmHg 27%
    16:00 +27°C° 0,4 mm 2 m/s 689 mmHg 31%
    17:00 +26°C° 0,4 mm 2 m/s 689 mmHg 35%
    18:00 +24°C° 0,4 mm 2 m/s 689 mmHg 39%
    19:00 +23°C° 0,1 mm 2 m/s 689 mmHg 43%
    20:00 +22°C° 0,1 mm 1 m/s 689 mmHg 46%
    21:00 +22°C° 0,1 mm 1 m/s 689 mmHg 49%
    22:00 +21°C° 0 mm 1 m/s 689 mmHg 52%
    23:00 +20°C° 0 mm 1 m/s 689 mmHg 54%

    Demain, 26 Septembre, Mardi

    Heure Température Précipitation Vent Pression Humidité
    00:00 +20°C° 0 mm 1 m/s 689 mmHg 57%
    01:00 +19°C° 0 mm 1 m/s 689 mmHg 59%
    02:00 +19°C° 0 mm 1 m/s 689 mmHg 61%
    03:00 +18°C° 0 mm 1 m/s 689 mmHg 62%
    04:00 +18°C° 0 mm 1 m/s 689 mmHg 64%
    05:00 +18°C° 0 mm 1 m/s 688 mmHg 66%
    06:00 +16°C° 0 mm 1 m/s 688 mmHg 67%
    07:00 +19°C° 0 mm 1 m/s 688 mmHg 57%
    08:00 +22°C° 0 mm 1 m/s 689 mmHg 47%
    09:00 +24°C° 0 mm 1 m/s 689 mmHg 37%
    10:00 +25°C° 0 mm 2 m/s 689 mmHg 33%
    11:00 +27°C° 0 mm 2 m/s 689 mmHg 28%
    12:00 +28°C° 0 mm 2 m/s 688 mmHg 24%
    13:00 +28°C° 0 mm 2 m/s 688 mmHg 23%
    14:00 +29°C° 0 mm 2 m/s 688 mmHg 22%
    15:00 +29°C° 0 mm 2 m/s 687 mmHg 21%
    16:00 +27°C° 0 mm 2 m/s 687 mmHg 24%
    17:00 +26°C° 0 mm 2 m/s 687 mmHg 27%
    18:00 +24°C° 0 mm 2 m/s 687 mmHg 31%
    19:00 +24°C° 0,1 mm 2 m/s 687 mmHg 35%
    20:00 +23°C° 0,1 mm 2 m/s 687 mmHg 39%
    21:00 +23°C° 0,1 mm 2 m/s 687 mmHg 43%
    22:00 +21°C° 0,3 mm 2 m/s 687 mmHg 47%
    23:00 +21°C° 0,3 mm 2 m/s 687 mmHg 50%

    Après-demain, 27 Septembre, Mercredi

    Heure Température Précipitation Vent Pression Humidité
    00:00 +20°C° 0,3 mm 2 m/s 687 mmHg 54%
    01:00 +21°C° 0,3 mm 1 m/s 687 mmHg 56%
    02:00 +20°C° 0,3 mm 1 m/s 687 mmHg 59%
    03:00 +20°C° 0,3 mm 1 m/s 687 mmHg 61%
    04:00 +20°C° 0,3 mm 1 m/s 687 mmHg 63%
    05:00 +19°C° 0,3 mm 1 m/s 686 mmHg 64%
    06:00 +19°C° 0,3 mm 1 m/s 686 mmHg 65%
    07:00 +21°C° 0,2 mm 1 m/s 686 mmHg 56%
    08:00 +23°C° 0,2 mm 1 m/s 687 mmHg 48%
    09:00 +25°C° 0,2 mm 2 m/s 687 mmHg 39%
    10:00 +26°C° 0,2 mm 2 m/s 687 mmHg 36%
    11:00 +27°C° 0,2 mm 3 m/s 687 mmHg 32%
    12:00 +28°C° 0,2 mm 3 m/s 687 mmHg 29%
    13:00 +29°C° 0,4 mm 3 m/s 687 mmHg 29%
    14:00 +29°C° 0,4 mm 3 m/s 686 mmHg 28%
    15:00 +29°C° 0,4 mm 4 m/s 686 mmHg 28%
    16:00 +27°C° 0,5 mm 3 m/s 686 mmHg 33%
    17:00 +26°C° 0,5 mm 3 m/s 686 mmHg 38%
    18:00 +24°C° 0,5 mm 3 m/s 686 mmHg 43%
    19:00 +22°C° 0,4 mm 3 m/s 686 mmHg 49%
    20:00 +21°C° 0,4 mm 3 m/s 687 mmHg 55%
    21:00 +20°C° 0,4 mm 2 m/s 687 mmHg 60%
    22:00 +19°C° 0,2 mm 2 m/s 687 mmHg 62%
    23:00 +19°C° 0,2 mm 2 m/s 687 mmHg 64%

    28 Septembre, Jeudi

    Heure Température Précipitation Vent Pression Humidité
    00:00 +18°C° 0,2 mm 2 m/s 687 mmHg 66%
    01:00 +18°C° 0,1 mm 2 m/s 687 mmHg 67%
    02:00 +17°C° 0,1 mm 2 m/s 687 mmHg 68%
    03:00 +17°C° 0,1 mm 2 m/s 686 mmHg 69%
    04:00 +18°C° 0,2 mm 1 m/s 687 mmHg 69%
    05:00 +16°C° 0,2 mm 1 m/s 687 mmHg 69%
    06:00 +16°C° 0,2 mm 1 m/s 687 mmHg 70%
    07:00 +19°C° 0,1 mm 1 m/s 687 mmHg 63%
    08:00 +21°C° 0,1 mm 1 m/s 688 mmHg 56%
    09:00 +22°C° 0,1 mm 1 m/s 688 mmHg 49%
    10:00 +23°C° 0,1 mm 1 m/s 688 mmHg 45%
    11:00 +25°C° 0,1 mm 2 m/s 688 mmHg 42%
    12:00 +26°C° 0,1 mm 2 m/s 688 mmHg 38%
    13:00 +26°C° 0,2 mm 2 m/s 688 mmHg 37%
    14:00 +26°C° 0,2 mm 2 m/s 688 mmHg 36%
    15:00 +26°C° 0,2 mm 2 m/s 688 mmHg 35%
    16:00 +25°C° 0,1 mm 2 m/s 688 mmHg 39%
    17:00 +24°C° 0,1 mm 3 m/s 688 mmHg 44%
    18:00 +22°C° 0,1 mm 3 m/s 688 mmHg 48%
    19:00 +21°C° 0,1 mm 3 m/s 688 mmHg 52%
    20:00 +20°C° 0,1 mm 3 m/s 688 mmHg 57%
    21:00 +19°C° 0,1 mm 3 m/s 689 mmHg 61%
    22:00 +18°C° 0 mm 3 m/s 689 mmHg 63%
    23:00 +18°C° 0 mm 2 m/s 688 mmHg 65%

    29 Septembre, Vendredi

    Heure Température Précipitation Vent Pression Humidité
    00:00 +17°C° 0 mm 2 m/s 688 mmHg 67%
    01:00 +17°C° 0 mm 2 m/s 688 mmHg 68%
    02:00 +16°C° 0 mm 2 m/s 688 mmHg 70%
    03:00 +16°C° 0 mm 2 m/s 688 mmHg 71%
    04:00 +15°C° 0 mm 2 m/s 688 mmHg 72%
    05:00 +15°C° 0 mm 2 m/s 688 mmHg 73%
    06:00 +15°C° 0 mm 2 m/s 688 mmHg 74%
    07:00 +17°C° 0 mm 2 m/s 688 mmHg 66%
    08:00 +19°C° 0 mm 2 m/s 689 mmHg 58%
    09:00 +20°C° 0 mm 2 m/s 689 mmHg 50%
    10:00 +22°C° 0 mm 3 m/s 688 mmHg 46%
    11:00 +24°C° 0 mm 3 m/s 688 mmHg 42%
    12:00 +25°C° 0 mm 3 m/s 688 mmHg 38%
    13:00 +26°C° 0,1 mm 3 m/s 687 mmHg 37%
    14:00 +26°C° 0,1 mm 3 m/s 687 mmHg 36%
    15:00 +26°C° 0,1 mm 4 m/s 686 mmHg 35%
    16:00 +25°C° 0,3 mm 3 m/s 686 mmHg 40%
    17:00 +22°C° 0,3 mm 3 m/s 686 mmHg 44%
    18:00 +21°C° 0,3 mm 2 m/s 686 mmHg 49%
    19:00 +20°C° 0,1 mm 2 m/s 686 mmHg 52%
    20:00 +19°C° 0,1 mm 3 m/s 686 mmHg 55%
    21:00 +18°C° 0,1 mm 3 m/s 686 mmHg 59%
    22:00 +18°C° 0,1 mm 2 m/s 686 mmHg 59%
    23:00 +18°C° 0,1 mm 2 m/s 686 mmHg 60%

    30 Septembre, Samedi

    Heure Température Précipitation Vent Pression Humidité
    00:00 +18°C° 0,1 mm 2 m/s 686 mmHg 61%
    01:00 +18°C° 0,3 mm 2 m/s 686 mmHg 62%
    02:00 +18°C° 0,3 mm 2 m/s 686 mmHg 63%
    03:00 +18°C° 0,3 mm 2 m/s 686 mmHg 64%
    04:00 +17°C° 0,6 mm 2 m/s 685 mmHg 66%
    05:00 +18°C° 0,6 mm 1 m/s 685 mmHg 67%
    06:00 +16°C° 0,6 mm 1 m/s 685 mmHg 69%
    07:00 +18°C° 0,4 mm 2 m/s 685 mmHg 64%
    08:00 +19°C° 0,4 mm 2 m/s 685 mmHg 59%
    09:00 +20°C° 0,4 mm 2 m/s 685 mmHg 54%
    10:00 +21°C° 0,3 mm 2 m/s 685 mmHg 48%
    11:00 +22°C° 0,3 mm 3 m/s 685 mmHg 43%
    12:00 +25°C° 0,3 mm 3 m/s 684 mmHg 38%
    13:00 +25°C° 0,4 mm 3 m/s 684 mmHg 36%
    14:00 +26°C° 0,4 mm 4 m/s 684 mmHg 35%
    15:00 +26°C° 0,4 mm 4 m/s 684 mmHg 33%
    16:00 +25°C° 0,4 mm 3 m/s 684 mmHg 38%
    17:00 +22°C° 0,4 mm 3 m/s 684 mmHg 42%
    18:00 +20°C° 0,4 mm 2 m/s 684 mmHg 46%
    19:00 +20°C° 0,1 mm 2 m/s 684 mmHg 48%
    20:00 +19°C° 0,1 mm 2 m/s 684 mmHg 49%
    21:00 +18°C° 0,1 mm 2 m/s 685 mmHg 51%
    22:00 +18°C° 0 mm 2 m/s 685 mmHg 52%
    23:00 +18°C° 0 mm 2 m/s 685 mmHg 53%
    Voir plus